Flight Track Log - Related Links

Times and Time Zones

All times are in EDT time to prevent confusion due to time zone crossing. See the SKW4496 flight status page for this flight to view local times or setup timezone preferences in your user account.

Time Position Orientation Groundspeed Altitude Reporting Facility
EDT Latitude Longitude Course Direction KTS MPH feet Rate Location/Type
Sun 08:48:18 AM 43.8614 -91.2997 351° North 228 262 3,100  Level Minneapolis Center
Sun 08:49:19 AM 43.9094 -91.3194 344° North 226 260 5,300 2,656 Climbing Minneapolis Center
Sun 08:50:00 AM 44.3342 -91.3468 352° North  Level FlightAware Approximate
Sun 08:50:20 AM 43.9853 -91.3331 353° North 230 265 8,500  Level Minneapolis Center
Sun 08:51:00 AM 44.4122 -91.3624 352° North  Level FlightAware Approximate
Sun 08:51:21 AM 44.0456 -91.3406 355° North 239 275 10,800  Level Minneapolis Center
Sun 08:52:00 AM 44.4887 -91.3845 351° North  Level FlightAware Approximate
Sun 08:52:22 AM 44.1061 -91.3817 334° Northwest 261 300 11,600  Level Minneapolis Center
Sun 08:53:00 AM 44.5665 -91.4018 351° North  Level FlightAware Approximate
Sun 08:53:23 AM 44.1911 -91.4608 326° Northwest 299 344 14,200  Level Minneapolis Center
Sun 08:54:24 AM 44.2611 -91.5258 326° Northwest 303 349 15,900 836 Climbing Minneapolis Center
Sun 08:55:25 AM 44.3342 -91.5950 326° Northwest 312 359 15,900  Level Minneapolis Center
Sun 08:56:27 AM 44.4042 -91.6656 324° Northwest 313 360 15,900  Level Minneapolis Center
Sun 08:57:40 AM 44.4742 -91.7325 326° Northwest 306 352 15,900  Level Minneapolis Center
Sun 08:58:41 AM 44.5594 -91.8147 326° Northwest 308 354 15,900  Level Minneapolis Center
Sun 08:59:42 AM 44.6317 -91.8825 326° Northwest 310 357 15,900  Level Minneapolis Center
Sun 09:00:43 AM 44.7172 -91.9631 326° Northwest 311 358 15,900  Level Minneapolis Center
Sun 09:01:44 AM 44.7872 -92.0325 325° Northwest 310 357 15,900 -393 Level Minneapolis Center
Sun 09:02:45 AM 44.8586 -92.1017 326° Northwest 311 358 15,100 -1,180 Descending Minneapolis Center
Sun 09:03:46 AM 44.9250 -92.1653 326° Northwest 296 341 13,500 -1,574 Descending Minneapolis Center
Sun 09:04:47 AM 44.9875 -92.2278 325° Northwest 282 325 11,900 -1,164 Descending Minneapolis Center
Sun 09:06:00 AM 45.0417 -92.2944 319° Northwest 268 308 10,900 -444 Descending Minneapolis Center
Sun 09:07:02 AM 45.0300 -92.4125 262° West 256 295 10,900 49 Level Minneapolis Center
Sun 09:08:03 AM 45.0150 -92.5108 258° West 257 296 11,000 49 Climbing Minneapolis Center
Sun 09:09:04 AM 44.9983 -92.6131 257° West 268 308 11,000  Level Minneapolis Center
Sun 09:10:05 AM 44.9853 -92.6931 257° West 264 304 11,000  Level Minneapolis Center
Sun 09:11:06 AM 44.9631 -92.8300 257° West 257 296 11,000  Level Minneapolis Center
Sun 09:12:07 AM 44.9475 -92.9261 257° West 253 291 11,000 -148 Level Minneapolis Center
Sun 09:13:08 AM 44.9319 -93.0222 257° West 253 291 10,700 -1,122 Descending Minneapolis Center
Sun 09:14:10 AM 44.9508 -93.1139 286° West 266 306 8,700 -1,951 Descending Minneapolis Center
Sun 09:15:11 AM 44.9936 -93.1994 305° West 270 311 6,700 -2,016 Descending Minneapolis Center
Sun 09:16:12 AM 45.0114 -93.2964 285° West 256 295 4,600 -1,820 Descending Minneapolis Center
Sun 09:17:13 AM 44.9725 -93.3564 228° Southwest 212 244 3,000 -1,082 Descending Minneapolis Center
Sun 09:18:14 AM 44.9306 -93.3317 157° South 169 194 2,400 -582 Descending Minneapolis Center
Sun 09:19:27 AM 44.9094 -93.2853 123° Southeast 140 161 1,700 -575 Descending Minneapolis Center

Login

Don't have an account? Register now (free) for customized features, flight alerts, and more!